| time (UTC) | temp C | wind direction | speed KPH | gust KPH | rain 1hr cm | rain 24hr cm | rain mn cm | humidity % | barometer mb |
| 20260903171505 | 21 | 284 | 12.9 | 32.2 | 0.00 | 0.00 | 0.00 | 29 | 1002.5 |
| 20260903171005 | 20 | 310 | 14.5 | 25.7 | 0.00 | 0.00 | 0.00 | 29 | 1002.5 |
| 20260903170004 | 20 | 267 | 14.5 | 19.3 | 0.00 | 0.00 | 0.00 | 30 | 1002.5 |
| 20260903165505 | 20 | 291 | 8.0 | 20.9 | 0.00 | 0.00 | 0.00 | 30 | 1002.5 |
| 20260903165004 | 20 | 288 | 14.5 | 24.1 | 0.00 | 0.00 | 0.00 | 30 | 1002.4 |
| 20260903164504 | 20 | 298 | 14.5 | 25.7 | 0.00 | 0.00 | 0.00 | 30 | 1002.4 |
| 20260903164005 | 20 | 294 | 14.5 | 25.7 | 0.00 | 0.00 | 0.00 | 30 | 1002.5 |
| 20260903163505 | 20 | 308 | 14.5 | 20.9 | 0.00 | 0.00 | 0.00 | 31 | 1002.5 |
| 20260903163005 | 20 | 275 | 12.9 | 24.1 | 0.00 | 0.00 | 0.00 | 30 | 1002.5 |
| 20260903162505 | 20 | 284 | 14.5 | 24.1 | 0.00 | 0.00 | 0.00 | 31 | 1002.4 |
| 20260903162005 | 20 | 289 | 11.3 | 19.3 | 0.00 | 0.00 | 0.00 | 31 | 1002.5 |
| 20260903161505 | 19 | 283 | 9.7 | 20.9 | 0.00 | 0.00 | 0.00 | 30 | 1002.5 |
| 20260903161005 | 19 | 278 | 11.3 | 24.1 | 0.00 | 0.00 | 0.00 | 31 | 1002.5 |
| 20260903160005 | 19 | 290 | 12.9 | 24.1 | 0.00 | 0.00 | 0.00 | 31 | 1002.5 |
| 20260903155505 | 19 | 292 | 14.5 | 24.1 | 0.00 | 0.00 | 0.00 | 31 | 1002.6 |
| 20260903155005 | 19 | 270 | 6.4 | 24.1 | 0.00 | 0.00 | 0.00 | 30 | 1002.6 |
| 20260903154504 | 19 | 235 | 6.4 | 24.1 | 0.00 | 0.00 | 0.00 | 31 | 1002.6 |
| 20260903153005 | 18 | 241 | 3.2 | 11.3 | 0.00 | 0.00 | 0.00 | 33 | 1002.8 |
| 20260903152504 | 18 | 240 | 3.2 | 14.5 | 0.00 | 0.00 | 0.00 | 33 | 1002.8 |
| 20260903152005 | 18 | 277 | 6.4 | 14.5 | 0.00 | 0.00 | 0.00 | 33 | 1002.9 |
| 20260903151504 | 18 | 289 | 4.8 | 14.5 | 0.00 | 0.00 | 0.00 | 34 | 1003.0 |
| 20260903151004 | 18 | 295 | 8.0 | 19.3 | 0.00 | 0.00 | 0.00 | 34 | 1003.1 |
| 20260903150004 | 18 | 265 | 14.5 | 19.3 | 0.00 | 0.00 | 0.00 | 31 | 1003.0 |
| 20260903145505 | 18 | 250 | 9.7 | 14.5 | 0.00 | 0.00 | 0.00 | 30 | 1003.0 |
| 20260903145005 | 18 | 226 | 8.0 | 14.5 | 0.00 | 0.00 | 0.00 | 31 | 1003.1 |
| 20260903144504 | 18 | 233 | 9.7 | 14.5 | 0.00 | 0.00 | 0.00 | 31 | 1003.0 |
| 20260903144004 | 18 | 233 | 8.0 | 14.5 | 0.00 | 0.00 | 0.00 | 31 | 1003.0 |
| 20260903143504 | 17 | 219 | 9.7 | 19.3 | 0.00 | 0.00 | 0.00 | 31 | 1003.0 |
| 20260903143005 | 17 | 233 | 9.7 | 19.3 | 0.00 | 0.00 | 0.00 | 31 | 1002.9 |
| 20260903142505 | 17 | 222 | 8.0 | 19.3 | 0.00 | 0.00 | 0.00 | 31 | 1002.8 |
| 20260903141005 | 17 | 207 | 9.7 | 14.5 | 0.00 | 0.00 | 0.00 | 32 | 1002.8 |
| 20260903135509 | 16 | 234 | 4.8 | 8.0 | 0.00 | 0.00 | 0.00 | 35 | 1002.7 |
| 20260903135005 | 16 | 241 | 4.8 | 8.0 | 0.00 | 0.00 | 0.00 | 34 | 1002.7 |
| 20260903134505 | 16 | 238 | 3.2 | 4.8 | 0.00 | 0.00 | 0.00 | 33 | 1002.6 |
| 20260903134005 | 16 | 235 | 0.0 | 0.0 | 0.00 | 0.00 | 0.00 | 33 | 1002.6 |
| 20260903133505 | 16 | 235 | 0.0 | 3.2 | 0.00 | 0.00 | 0.00 | 32 | 1002.7 |
| 20260903132505 | 15 | 235 | 1.6 | 4.8 | 0.00 | 0.00 | 0.00 | 33 | 1002.4 |
| 20260903131505 | 16 | 235 | 4.8 | 9.7 | 0.00 | 0.00 | 0.00 | 32 | 1002.3 |
| 20260903131005 | 16 | 261 | 3.2 | 9.7 | 0.00 | 0.00 | 0.00 | 32 | 1002.2 |
| 20260903130005 | 16 | 282 | 8.0 | 19.3 | 0.00 | 0.00 | 0.00 | 31 | 1002.0 |
| 20260903125505 | 16 | 254 | 9.7 | 19.3 | 0.00 | 0.00 | 0.00 | 31 | 1001.9 |
| 20260903125005 | 17 | 245 | 14.5 | 19.3 | 0.00 | 0.00 | 0.00 | 32 | 1001.9 |
| 20260903124505 | 17 | 237 | 8.0 | 14.5 | 0.00 | 0.00 | 0.00 | 31 | 1001.7 |
| 20260903124004 | 17 | 231 | 8.0 | 14.5 | 0.00 | 0.00 | 0.00 | 31 | 1001.7 |
| 20260903123504 | 17 | 228 | 8.0 | 14.5 | 0.00 | 0.00 | 0.00 | 30 | 1001.6 |
| 20260903123004 | 17 | 225 | 8.0 | 14.5 | 0.00 | 0.00 | 0.00 | 30 | 1001.6 |
| 20260903122504 | 17 | 230 | 8.0 | 16.1 | 0.00 | 0.00 | 0.00 | 30 | 1001.5 |
| 20260903122004 | 17 | 225 | 9.7 | 19.3 | 0.00 | 0.00 | 0.00 | 29 | 1001.4 |
| 20260903121505 | 17 | 222 | 9.7 | 19.3 | 0.00 | 0.00 | 0.00 | 29 | 1001.5 |
| 20260903121005 | 17 | 212 | 8.0 | 16.1 | 0.00 | 0.00 | 0.00 | 28 | 1001.4 |
| 20260903120004 | 17 | 202 | 8.0 | 19.3 | 0.00 | 0.00 | 0.00 | 27 | 1001.5 |
| 20260903115504 | 17 | 216 | 8.0 | 19.3 | 0.00 | 0.00 | 0.00 | 27 | 1001.5 |
| 20260903115004 | 17 | 233 | 11.3 | 19.3 | 0.00 | 0.00 | 0.00 | 27 | 1001.4 |
| 20260903114504 | 17 | 241 | 11.3 | 22.5 | 0.00 | 0.00 | 0.00 | 27 | 1001.6 |
| 20260903113505 | 17 | 233 | 9.7 | 19.3 | 0.00 | 0.00 | 0.00 | 27 | 1001.5 |
| 20260903113005 | 17 | 234 | 8.0 | 20.9 | 0.00 | 0.00 | 0.00 | 27 | 1001.4 |
| 20260903112505 | 17 | 230 | 9.7 | 20.9 | 0.00 | 0.00 | 0.00 | 26 | 1001.4 |
| 20260903112005 | 17 | 236 | 11.3 | 19.3 | 0.00 | 0.00 | 0.00 | 26 | 1001.4 |
| 20260903111505 | 17 | 236 | 11.3 | 19.3 | 0.00 | 0.00 | 0.00 | 25 | 1001.4 |
| 20260903111005 | 17 | 230 | 6.4 | 33.8 | 0.00 | 0.00 | 0.00 | 25 | 1001.3 |
| 20260903110005 | 17 | 165 | 11.3 | 33.8 | 0.00 | 0.00 | 0.00 | 25 | 1001.2 |
| 20260903105005 | 16 | 181 | 1.6 | 8.0 | 0.00 | 0.00 | 0.00 | 25 | 1001.3 |
| 20260903104005 | 16 | 245 | 0.0 | 4.8 | 0.00 | 0.00 | 0.00 | 25 | 1001.4 |
| 20260903103504 | 16 | 245 | 3.2 | 4.8 | 0.00 | 0.00 | 0.00 | 25 | 1001.6 |
| 20260903103005 | 16 | 245 | 1.6 | 4.8 | 0.00 | 0.00 | 0.00 | 25 | 1001.5 |
| 20260903102504 | 16 | 245 | 3.2 | 4.8 | 0.00 | 0.00 | 0.00 | 25 | 1001.5 |
| 20260903101504 | 16 | 245 | 3.2 | 9.7 | 0.00 | 0.00 | 0.00 | 27 | 1001.5 |
| 20260903101004 | 16 | 241 | 6.4 | 14.5 | 0.00 | 0.00 | 0.00 | 26 | 1001.5 |
| 20260903100004 | 16 | 201 | 9.7 | 19.3 | 0.00 | 0.00 | 0.00 | 26 | 1001.4 |
| 20260903095504 | 16 | 176 | 11.3 | 19.3 | 0.00 | 0.00 | 0.00 | 26 | 1001.4 |
| 20260903095004 | 15 | 186 | 9.7 | 11.3 | 0.00 | 0.00 | 0.00 | 27 | 1001.4 |
| 20260903094504 | 15 | 182 | 9.7 | 11.3 | 0.00 | 0.00 | 0.00 | 28 | 1001.4 |
| 20260903094004 | 15 | 187 | 8.0 | 11.3 | 0.00 | 0.00 | 0.00 | 27 | 1001.4 |
| 20260903093505 | 15 | 201 | 8.0 | 11.3 | 0.00 | 0.00 | 0.00 | 27 | 1001.5 |
| 20260903093005 | 15 | 186 | 8.0 | 9.7 | 0.00 | 0.00 | 0.00 | 28 | 1001.4 |
| 20260903092505 | 15 | 183 | 8.0 | 12.9 | 0.00 | 0.00 | 0.00 | 28 | 1001.5 |
| 20260903092005 | 15 | 182 | 8.0 | 12.9 | 0.00 | 0.00 | 0.00 | 27 | 1001.4 |
| 20260903091005 | 15 | 201 | 6.4 | 9.7 | 0.00 | 0.00 | 0.00 | 28 | 1001.4 |
| 20260903090004 | 15 | 221 | 3.2 | 4.8 | 0.00 | 0.00 | 0.00 | 28 | 1001.3 |
| 20260903085504 | 15 | 233 | 4.8 | 8.0 | 0.00 | 0.00 | 0.00 | 28 | 1001.2 |
| 20260903085005 | 15 | 234 | 4.8 | 11.3 | 0.00 | 0.00 | 0.00 | 29 | 1001.1 |
| 20260903084505 | 15 | 233 | 6.4 | 12.9 | 0.00 | 0.00 | 0.00 | 29 | 1001.1 |
| 20260903084004 | 15 | 242 | 8.0 | 12.9 | 0.00 | 0.00 | 0.00 | 27 | 1001.1 |
| 20260903083504 | 16 | 221 | 6.4 | 9.7 | 0.00 | 0.00 | 0.00 | 26 | 1001.0 |
| 20260903083004 | 15 | 203 | 3.2 | 4.8 | 0.00 | 0.00 | 0.00 | 26 | 1000.9 |
| 20260903082504 | 15 | 202 | 3.2 | 4.8 | 0.00 | 0.00 | 0.00 | 26 | 1000.9 |
| 20260903082004 | 15 | 201 | 4.8 | 11.3 | 0.00 | 0.00 | 0.00 | 26 | 1001.0 |
| 20260903081505 | 15 | 201 | 3.2 | 11.3 | 0.00 | 0.00 | 0.00 | 26 | 1001.1 |
| 20260903081004 | 15 | 202 | 3.2 | 11.3 | 0.00 | 0.00 | 0.00 | 26 | 1001.1 |
| 20260903080004 | 16 | 185 | 3.2 | 14.5 | 0.00 | 0.00 | 0.00 | 26 | 1001.2 |
| 20260903075504 | 16 | 187 | 11.3 | 14.5 | 0.00 | 0.00 | 0.00 | 25 | 1001.2 |
| 20260903075004 | 17 | 205 | 6.4 | 9.7 | 0.00 | 0.00 | 0.00 | 24 | 1001.2 |
| 20260903074504 | 17 | 236 | 4.8 | 8.0 | 0.00 | 0.00 | 0.00 | 23 | 1001.2 |
| 20260903074005 | 17 | 276 | 0.0 | 0.0 | 0.00 | 0.00 | 0.00 | 23 | 1001.2 |
| 20260903073505 | 17 | 305 | 0.0 | 0.0 | 0.00 | 0.00 | 0.00 | 23 | 1001.2 |
| 20260903073005 | 17 | 310 | 0.0 | 0.0 | 0.00 | 0.00 | 0.00 | 22 | 1001.2 |
| 20260903072504 | 17 | 310 | 0.0 | 0.0 | 0.00 | 0.00 | 0.00 | 23 | 1001.1 |
| 20260903072004 | 17 | 310 | 0.0 | 0.0 | 0.00 | 0.00 | 0.00 | 22 | 1001.1 |
| 20260903071505 | 17 | 312 | 0.0 | 0.0 | 0.00 | 0.00 | 0.00 | 22 | 1001.2 |
| 20260903071005 | 17 | 312 | 0.0 | 0.0 | 0.00 | 0.00 | 0.00 | 22 | 1001.1 |
| 20260903070004 | 17 | 312 | 0.0 | 0.0 | 0.00 | 0.00 | 0.00 | 22 | 1001.1 |
| 20260903065504 | 17 | 312 | 0.0 | 0.0 | 0.00 | 0.00 | 0.00 | 23 | 1001.1 |
| 20260903065005 | 17 | 312 | 0.0 | 0.0 | 0.00 | 0.00 | 0.00 | 22 | 1001.1 |
| 20260903064505 | 17 | 312 | 0.0 | 0.0 | 0.00 | 0.00 | 0.00 | 22 | 1001.0 |
| 20260903064004 | 17 | 312 | 0.0 | 0.0 | 0.00 | 0.00 | 0.00 | 22 | 1001.0 |
| 20260903063504 | 17 | 312 | 0.0 | 0.0 | 0.00 | 0.00 | 0.00 | 22 | 1000.9 |
| 20260903063004 | 17 | 313 | 0.0 | 0.0 | 0.00 | 0.00 | 0.00 | 23 | 1000.8 |
| 20260903062005 | 18 | 339 | 0.0 | 1.6 | 0.00 | 0.00 | 0.00 | 23 | 1000.8 |
| 20260903061504 | 18 | 340 | 0.0 | 3.2 | 0.00 | 0.00 | 0.00 | 22 | 1000.7 |
| 20260903061005 | 18 | 340 | 0.0 | 4.8 | 0.00 | 0.00 | 0.00 | 21 | 1000.8 |
| 20260903060004 | 18 | 340 | 3.2 | 8.0 | 0.00 | 0.00 | 0.00 | 21 | 1000.9 |
| 20260903055504 | 18 | 241 | 0.0 | 0.0 | 0.00 | 0.00 | 0.00 | 22 | 1000.9 |
| 20260903055005 | 18 | 241 | 0.0 | 1.6 | 0.00 | 0.00 | 0.00 | 22 | 1001.1 |
| 20260903054504 | 18 | 241 | 0.0 | 3.2 | 0.00 | 0.00 | 0.00 | 21 | 1001.0 |
| 20260903054004 | 18 | 245 | 0.0 | 3.2 | 0.00 | 0.00 | 0.00 | 21 | 1001.0 |
| 20260903053504 | 18 | 245 | 0.0 | 3.2 | 0.00 | 0.00 | 0.00 | 21 | 1001.0 |
| 20260903053005 | 18 | 245 | 0.0 | 4.8 | 0.00 | 0.00 | 0.00 | 21 | 1001.0 |
| 20260903052004 | 17 | 245 | 3.2 | 4.8 | 0.00 | 0.00 | 0.00 | 22 | 1001.0 |
| 20260903051504 | 18 | 245 | 0.0 | 4.8 | 0.00 | 0.00 | 0.00 | 22 | 1001.1 |
| 20260903051004 | 18 | 244 | 0.0 | 4.8 | 0.00 | 0.00 | 0.00 | 22 | 1001.1 |
| 20260903050004 | 18 | 245 | 4.8 | 8.0 | 0.00 | 0.00 | 0.00 | 21 | 1001.0 |
| 20260903045504 | 18 | 242 | 4.8 | 11.3 | 0.00 | 0.00 | 0.00 | 21 | 1001.1 |
| 20260903045005 | 19 | 241 | 6.4 | 12.9 | 0.00 | 0.00 | 0.00 | 20 | 1001.0 |
| 20260903044004 | 18 | 246 | 8.0 | 12.9 | 0.00 | 0.00 | 0.00 | 21 | 1001.0 |
| 20260903043504 | 18 | 241 | 8.0 | 12.9 | 0.00 | 0.00 | 0.00 | 21 | 1001.1 |
| 20260903043004 | 18 | 242 | 8.0 | 14.5 | 0.00 | 0.00 | 0.00 | 21 | 1001.0 |
| 20260903042005 | 18 | 263 | 8.0 | 14.5 | 0.00 | 0.00 | 0.00 | 21 | 1001.1 |
| 20260903041504 | 18 | 269 | 9.7 | 14.5 | 0.00 | 0.00 | 0.00 | 21 | 1001.0 |
| 20260903041004 | 18 | 244 | 6.4 | 11.3 | 0.00 | 0.00 | 0.00 | 22 | 1001.0 |
| 20260903040004 | 18 | 239 | 6.4 | 9.7 | 0.00 | 0.00 | 0.00 | 21 | 1000.9 |
| 20260903035504 | 18 | 225 | 8.0 | 8.0 | 0.00 | 0.00 | 0.00 | 21 | 1001.0 |
| 20260903035004 | 17 | 201 | 4.8 | 8.0 | 0.00 | 0.00 | 0.00 | 22 | 1001.0 |
| 20260903034504 | 18 | 201 | 3.2 | 11.3 | 0.00 | 0.00 | 0.00 | 22 | 1000.9 |
| 20260903034005 | 18 | 199 | 6.4 | 11.3 | 0.00 | 0.00 | 0.00 | 21 | 1000.8 |
| 20260903033505 | 18 | 200 | 4.8 | 9.7 | 0.00 | 0.00 | 0.00 | 20 | 1000.7 |
| 20260903033004 | 18 | 200 | 4.8 | 11.3 | 0.00 | 0.00 | 0.00 | 20 | 1000.6 |
| 20260903032504 | 18 | 201 | 4.8 | 12.9 | 0.00 | 0.00 | 0.00 | 21 | 1000.6 |
| 20260903032004 | 18 | 182 | 11.3 | 16.1 | 0.00 | 0.00 | 0.00 | 21 | 1000.6 |
| 20260903031504 | 18 | 179 | 12.9 | 16.1 | 0.00 | 0.00 | 0.00 | 21 | 1000.5 |
| 20260903031004 | 18 | 178 | 11.3 | 12.9 | 0.00 | 0.00 | 0.00 | 20 | 1000.6 |
| 20260903025004 | 20 | 197 | 9.7 | 16.1 | 0.00 | 0.00 | 0.00 | 19 | 1000.6 |
| 20260903024504 | 20 | 199 | 9.7 | 16.1 | 0.00 | 0.00 | 0.00 | 19 | 1000.6 |
| 20260903023505 | 21 | 193 | 11.3 | 16.1 | 0.00 | 0.00 | 0.00 | 18 | 1000.6 |
| 20260903022004 | 21 | 208 | 11.3 | 19.3 | 0.00 | 0.00 | 0.00 | 17 | 1000.4 |
| 20260903021504 | 22 | 195 | 12.9 | 19.3 | 0.00 | 0.00 | 0.00 | 17 | 1000.3 |
| 20260903020004 | 22 | 200 | 17.7 | 32.2 | 0.00 | 0.00 | 0.00 | 15 | 1000.1 |
| 20260903015505 | 23 | 213 | 19.3 | 38.6 | 0.00 | 0.00 | 0.00 | 15 | 1000.1 |
| 20260903014504 | 23 | 208 | 22.5 | 35.4 | 0.00 | 0.00 | 0.00 | 15 | 999.9 |
| 20260903014004 | 23 | 197 | 19.3 | 32.2 | 0.00 | 0.00 | 0.00 | 16 | 999.9 |
| 20260903012504 | 24 | 193 | 29.0 | 48.3 | 0.00 | 0.00 | 0.00 | 14 | 999.9 |
| 20260903012004 | 24 | 196 | 17.7 | 40.2 | 0.00 | 0.00 | 0.00 | 14 | 999.9 |
| 20260903011504 | 24 | 197 | 16.1 | 38.6 | 0.00 | 0.00 | 0.00 | 13 | 999.8 |
| 20260903011004 | 25 | 196 | 22.5 | 41.8 | 0.00 | 0.00 | 0.00 | 13 | 999.9 |
| 20260903010004 | 25 | 192 | 27.4 | 46.7 | 0.00 | 0.00 | 0.00 | 13 | 999.8 |
| 20260903005504 | 25 | 199 | 14.5 | 38.6 | 0.00 | 0.00 | 0.00 | 14 | 999.8 |
| 20260903005005 | 25 | 201 | 14.5 | 27.4 | 0.00 | 0.00 | 0.00 | 15 | 999.8 |
| 20260903004504 | 25 | 227 | 16.1 | 27.4 | 0.00 | 0.00 | 0.00 | 15 | 999.8 |
| 20260903003504 | 25 | 211 | 16.1 | 32.2 | 0.00 | 0.00 | 0.00 | 14 | 999.7 |
| 20260903003005 | 25 | 215 | 19.3 | 32.2 | 0.00 | 0.00 | 0.00 | 13 | 999.7 |
| 20260903002005 | 25 | 207 | 16.1 | 32.2 | 0.00 | 0.00 | 0.00 | 14 | 999.4 |
| 20260903001004 | 25 | 218 | 17.7 | 29.0 | 0.00 | 0.00 | 0.00 | 13 | 999.4 |
| 20260902235004 | 25 | 216 | 20.9 | 37.0 | 0.00 | 0.00 | 0.00 | 14 | 999.4 |
| 20260902234505 | 25 | 218 | 19.3 | 37.0 | 0.00 | 0.00 | 0.00 | 13 | 999.3 |
| 20260902234004 | 25 | 219 | 22.5 | 37.0 | 0.00 | 0.00 | 0.00 | 13 | 999.3 |
| 20260902233503 | 26 | 222 | 22.5 | 33.8 | 0.00 | 0.00 | 0.00 | 13 | 999.2 |
| 20260902233004 | 25 | 231 | 22.5 | 33.8 | 0.00 | 0.00 | 0.00 | 13 | 999.1 |
| 20260902232504 | 26 | 228 | 20.9 | 32.2 | 0.00 | 0.00 | 0.00 | 13 | 999.1 |
| 20260902232004 | 26 | 233 | 19.3 | 32.2 | 0.00 | 0.00 | 0.00 | 13 | 999.0 |
| 20260902231504 | 26 | 234 | 19.3 | 29.0 | 0.00 | 0.00 | 0.00 | 14 | 999.0 |
| 20260902231004 | 26 | 233 | 17.7 | 37.0 | 0.00 | 0.00 | 0.00 | 14 | 999.0 |
| 20260902230004 | 26 | 234 | 20.9 | 37.0 | 0.00 | 0.00 | 0.00 | 13 | 999.0 |
| 20260902225504 | 26 | 230 | 22.5 | 33.8 | 0.00 | 0.00 | 0.00 | 14 | 998.9 |
| 20260902225004 | 26 | 229 | 19.3 | 38.6 | 0.00 | 0.00 | 0.00 | 13 | 998.8 |
| 20260902224504 | 27 | 228 | 27.4 | 38.6 | 0.00 | 0.00 | 0.00 | 13 | 998.7 |
| 20260902223504 | 28 | 237 | 24.1 | 37.0 | 0.00 | 0.00 | 0.00 | 13 | 998.6 |
| 20260902223006 | 27 | 222 | 20.9 | 32.2 | 0.00 | 0.00 | 0.00 | 14 | 998.5 |
| 20260902222006 | 26 | 222 | 12.9 | 33.8 | 0.00 | 0.00 | 0.00 | 18 | 998.6 |
| 20260902221505 | 26 | 236 | 16.1 | 32.2 | 0.00 | 0.00 | 0.00 | 17 | 998.6 |
| 20260902221006 | 26 | 226 | 11.3 | 22.5 | 0.00 | 0.00 | 0.00 | 18 | 998.5 |
| 20260902220006 | 25 | 263 | 3.2 | 11.3 | 0.00 | 0.00 | 0.00 | 25 | 998.7 |
| 20260902215506 | 25 | 266 | 4.8 | 11.3 | 0.00 | 0.00 | 0.00 | 24 | 998.8 |
| 20260902215006 | 25 | 310 | 4.8 | 12.9 | 0.00 | 0.00 | 0.00 | 24 | 998.8 |
| 20260902213506 | 25 | 5 | 3.2 | 22.5 | 0.00 | 0.00 | 0.00 | 25 | 998.7 |
| 20260902212506 | 25 | 306 | 8.0 | 20.9 | 0.00 | 0.00 | 0.00 | 27 | 998.8 |
| 20260902212006 | 25 | 317 | 16.1 | 20.9 | 0.00 | 0.00 | 0.00 | 26 | 998.8 |
| 20260902211005 | 26 | 255 | 4.8 | 14.5 | 0.00 | 0.00 | 0.00 | 23 | 998.8 |
| 20260902205506 | 27 | 161 | 9.7 | 25.7 | 0.00 | 0.00 | 0.00 | 21 | 999.0 |
| 20260902205006 | 27 | 147 | 19.3 | 25.7 | 0.00 | 0.00 | 0.00 | 21 | 998.9 |
| 20260902204506 | 27 | 155 | 9.7 | 19.3 | 0.00 | 0.00 | 0.00 | 22 | 999.0 |
| 20260902204005 | 27 | 170 | 9.7 | 16.1 | 0.00 | 0.00 | 0.00 | 22 | 999.0 |
| 20260902203006 | 27 | 232 | 8.0 | 22.5 | 0.00 | 0.00 | 0.00 | 23 | 999.2 |
| 20260902202506 | 26 | 121 | 11.3 | 22.5 | 0.00 | 0.00 | 0.00 | 23 | 999.3 |
| 20260902202006 | 26 | 55 | 4.8 | 19.3 | 0.00 | 0.00 | 0.00 | 24 | 999.3 |
| 20260902201505 | 26 | 165 | 3.2 | 16.1 | 0.00 | 0.00 | 0.00 | 25 | 999.4 |
| 20260902200006 | 25 | 256 | 11.3 | 22.5 | 0.00 | 0.00 | 0.00 | 27 | 999.7 |
| 20260902195006 | 25 | 243 | 9.7 | 19.3 | 0.00 | 0.00 | 0.00 | 29 | 1000.1 |
| 20260902194505 | 24 | 193 | 8.0 | 20.9 | 0.00 | 0.00 | 0.00 | 31 | 1000.3 |
| 20260902194006 | 23 | 230 | 11.3 | 20.9 | 0.00 | 0.00 | 0.00 | 31 | 1000.3 |
| 20260902193505 | 23 | 241 | 9.7 | 25.7 | 0.00 | 0.00 | 0.00 | 35 | 1000.5 |
| 20260902192505 | 23 | 249 | 20.9 | 33.8 | 0.00 | 0.00 | 0.00 | 35 | 1000.3 |
| 20260902192005 | 24 | 275 | 19.3 | 33.8 | 0.00 | 0.00 | 0.00 | 35 | 1000.3 |
| 20260902191506 | 25 | 312 | 17.7 | 24.1 | 0.00 | 0.00 | 0.00 | 30 | 1000.1 |
| 20260902191006 | 25 | 246 | 12.9 | 24.1 | 0.00 | 0.00 | 0.00 | 24 | 1000.2 |
| 20260902190006 | 25 | 217 | 9.7 | 16.1 | 0.00 | 0.00 | 0.00 | 25 | 1000.2 |
| 20260902185506 | 25 | 201 | 6.4 | 24.1 | 0.00 | 0.00 | 0.00 | 30 | 1000.2 |
| 20260902185006 | 26 | 305 | 11.3 | 24.1 | 0.00 | 0.00 | 0.00 | 30 | 1000.2 |
| 20260902184506 | 25 | 246 | 11.3 | 22.5 | 0.00 | 0.00 | 0.00 | 26 | 1000.3 |
| 20260902184005 | 25 | 231 | 4.8 | 11.3 | 0.00 | 0.00 | 0.00 | 32 | 1000.4 |
| 20260902183505 | 25 | 92 | 1.6 | 16.1 | 0.00 | 0.00 | 0.00 | 34 | 1000.5 |
| 20260902181506 | 23 | 21 | 0.0 | 4.8 | 0.00 | 0.00 | 0.00 | 39 | 1000.8 |
| 20260902181006 | 22 | 13 | 0.0 | 0.0 | 0.00 | 0.00 | 0.00 | 40 | 1001.0 |
| 20260902180007 | 21 | 12 | 0.0 | 4.8 | 0.00 | 0.00 | 0.00 | 42 | 1001.0 |
| 20260902175505 | 21 | 3 | 1.6 | 9.7 | 0.00 | 0.00 | 0.00 | 44 | 1001.1 |
| 20260902175006 | 21 | 335 | 3.2 | 9.7 | 0.00 | 0.00 | 0.00 | 45 | 1001.3 |
| 20260902174506 | 21 | 321 | 3.2 | 11.3 | 0.00 | 0.00 | 0.00 | 44 | 1001.3 |
| 20260902174006 | 21 | 315 | 4.8 | 12.9 | 0.00 | 0.00 | 0.00 | 45 | 1001.3 |
| 20260902173506 | 21 | 312 | 6.4 | 12.9 | 0.00 | 0.00 | 0.00 | 44 | 1001.4 |
| 20260902173006 | 21 | 308 | 0.0 | 8.0 | 0.00 | 0.00 | 0.00 | 45 | 1001.4 |
| 20260902172505 | 21 | 305 | 0.0 | 0.0 | 0.00 | 0.00 | 0.00 | 44 | 1001.5 |
| 20260902172006 | 21 | 305 | 0.0 | 0.0 | 0.00 | 0.00 | 0.00 | 44 | 1001.5 |